Theta_e
312 311 311 310 309 306 304 302 298 308 309 296 295 290 296 298 298 299 298 296 294 291 291 291 290 290 294 299 297 291 292 289 282 285 293 295 292 289 290 284 284 285 285 285
312 311 310 310 309 306 300 298 302 310 307 290 291 296 297 299 297 295 296 294 295 295 292 287 293 293 298 299 296 292 292 286 281 282 289 294 291 291 291 291 290 285 282 283
312 311 310 310 308 307 302 301 295 300 301 299 295 294 295 294 299 296 296 294 296 292 290 291 287 291 296 299 298 302 299 285 284 280 284 288 285 289 291 289 284 286 286 288
313 312 310 310 308 306 303 303 295 299 290 293 295 296 296 292 291 296 295 294 293 292 288 289 289 292 294 297 300 296 293 284 287 288 289 289 289 289 290 288 289 284 288 289
313 312 310 310 308 306 304 298 296 299 296 297 296 294 292 292 292 292 292 292 296 294 288 290 288 291 292 291 295 294 292 285 288 285 289 291 289 291 292 291 292 290 291 290
314 312 311 311 309 306 303 305 305 298 296 295 293 292 293 293 293 295 297 297 293 292 294 296 297 297 297 296 291 287 285 285 285 280 289 288 285 289 292 293 295 294 288 292
314 312 311 311 309 306 302 302 302 296 291 293 293 294 295 293 293 292 298 297 293 298 303 301 299 298 299 299 296 293 285 285 286 281 284 277 290 293 292 291 295 296 293 295
313 312 310 311 310 308 302 303 301 298 291 294 295 294 293 294 294 293 297 298 299 302 299 292 290 292 293 296 297 293 294 287 283 281 282 287 290 289 288 288 289 294 292 295
312 312 310 310 310 308 303 303 307 301 293 292 297 293 294 290 289 293 296 301 302 299 293 291 285 284 288 288 291 297 293 293 285 284 282 281 284 289 293 292 287 292 292 292
312 313 312 310 311 308 304 302 306 302 294 297 298 292 291 294 292 290 294 296 295 297 289 284 282 283 290 285 284 285 285 285 283 284 284 286 289 291 294 285 286 291 292 293
310 312 312 310 311 308 303 302 306 302 296 297 299 301 294 294 292 286 293 292 293 292 287 287 284 284 287 287 288 284 283 279 282 281 282 278 291 290 283 288 291 297 299 301
310 311 311 310 310 308 305 299 307 309 300 296 302 301 302 300 298 293 293 292 294 292 289 290 288 286 288 288 282 291 283 284 282 282 282 290 292 291 292 294 296 298 299 301
310 311 310 310 310 308 305 301 303 301 297 298 298 297 304 307 304 304 293 296 299 297 298 292 289 284 289 284 285 285 290 290 285 286 289 290 291 292 293 296 298 299 300 299
309 310 309 309 310 309 307 300 303 301 298 290 294 304 299 304 304 306 305 302 303 300 298 292 290 286 293 287 288 285 286 287 286 286 289 289 292 291 293 296 299 298 299 300
309 308 308 309 309 307 305 304 303 304 297 290 292 298 302 303 305 305 306 303 301 299 293 291 290 293 291 292 291 286 286 285 284 283 288 287 288 292 294 296 297 298 298 298
307 308 308 309 308 305 301 297 305 306 305 293 288 297 298 302 305 303 302 304 302 299 295 293 297 299 293 288 286 289 290 291 289 287 291 292 292 293 297 297 298 298 299 300
307 308 308 307 305 302 297 296 300 303 304 295 288 290 300 304 305 304 304 304 302 300 297 295 297 295 295 290 285 289 291 290 290 292 292 290 292 291 296 297 298 300 300 301
307 306 305 304 303 302 296 302 304 304 298 296 288 289 294 305 299 298 305 302 302 300 298 299 297 294 294 287 288 291 292 290 290 291 293 292 294 296 295 297 297 296 297 299
304 303 302 300 298 296 300 305 305 304 298 291 291 287 288 304 301 302 301 302 295 301 297 296 295 292 287 290 291 290 290 289 289 291 292 293 293 293 293 294 296 295 295 298
301 298 295 293 299 307 305 299 294 293 293 293 288 294 290 295 294 296 296 300 294 290 295 299 293 289 294 295 294 293 292 291 292 289 288 290 291 292 292 292 294 296 296 297
298 296 295 302 306 302 298 293 291 291 289 291 291 292 290 299 293 294 298 293 294 288 292 291 288 287 293 295 294 295 295 293 293 293 293 293 293 293 292 292 295 296 297 297
298 297 299 300 298 296 291 291 293 292 290 295 294 296 296 298 303 297 297 292 294 287 297 291 285 292 295 295 294 293 293 293 293 293 293 294 294 294 294 293 295 296 298 298
299 295 293 294 294 287 286 284 288 291 296 298 299 297 300 301 303 297 296 292 289 298 291 287 292 294 295 295 294 292 293 294 293 294 294 295 295 296 296 295 296 296 297 298
291 290 285 288 287 290 291 291 293 298 299 300 299 298 298 301 297 297 293 295 295 288 285 286 295 295 295 295 294 292 291 293 292 293 295 295 295 295 296 296 297 295 296 297
289 290 285 288 293 295 296 298 297 299 303 301 299 299 299 297 295 297 295 291 288 289 287 293 297 296 295 294 294 292 292 292 293 294 294 295 296 295 295 297 297 297 296 297
290 289 288 293 293 294 296 296 297 301 301 301 299 296 294 293 294 293 291 290 288 290 296 298 297 295 295 294 294 294 293 293 294 295 295 295 295 295 295 296 297 296 297 297
289 288 293 293 293 292 295 296 297 301 299 293 296 292 292 297 293 292 295 292 295 299 299 300 298 296 295 295 295 295 294 294 295 295 296 295 296 297 296 295 296 297 297 297
Wind_Speed
21 23 23 24 24 29 11 6 4 3 5 5 1 4 11 16 10 10 6 5 6 9 9 6 7 5 5 9 5 8 2 4 7 11 23 14 17 16 13 6 5 1 1 9
19 20 23 23 22 17 8 7 5 3 6 5 4 7 12 16 13 10 7 7 9 15 2 4 7 11 7 8 3 2 3 4 6 6 4 2 4 2 10 9 11 13 9 8
16 17 20 23 23 18 6 4 5 5 5 7 8 11 15 15 8 10 11 12 10 10 9 7 8 17 4 3 7 18 13 2 7 9 18 14 19 17 15 6 5 4 7 17
15 16 16 20 24 25 3 2 3 4 6 8 14 14 13 14 14 7 9 6 12 12 10 13 12 10 17 14 18 4 6 6 8 18 23 21 23 23 20 17 13 10 14 18
15 15 16 17 19 29 1 4 4 4 12 10 13 10 10 13 16 15 9 10 13 8 9 7 25 22 15 10 7 8 5 4 5 17 20 14 18 18 17 19 16 14 18 21
14 13 13 12 13 14 4 4 5 3 6 9 9 7 14 19 15 6 16 10 9 14 11 18 20 19 21 16 5 3 3 2 3 9 12 20 2 12 11 14 10 11 11 17
14 13 12 11 8 5 3 4 7 4 7 8 11 20 15 17 17 15 8 13 9 10 19 21 17 13 8 4 7 8 4 2 3 8 11 3 2 17 12 16 10 10 12 17
16 13 12 11 8 6 3 5 4 4 6 7 17 14 14 13 15 14 9 12 4 9 12 8 7 3 1 6 7 5 4 2 3 4 5 7 4 15 13 10 12 10 11 15
17 14 12 12 8 7 4 6 7 3 5 6 15 14 11 10 8 6 11 8 7 11 4 4 5 4 7 5 3 6 7 5 3 3 5 3 4 21 21 17 6 14 17 19
18 17 14 12 9 8 4 5 6 4 6 10 8 7 7 5 6 6 8 8 7 8 5 4 3 4 9 5 5 6 5 4 4 5 5 3 9 21 20 3 7 23 22 21
18 17 14 12 11 8 2 7 7 4 5 14 9 4 10 11 6 3 8 7 3 3 6 4 4 3 5 4 0 4 3 4 4 5 4 4 20 9 6 9 24 16 10 6
17 16 13 11 11 8 5 4 4 2 6 11 20 23 25 24 23 6 4 5 1 2 1 1 3 3 4 5 3 0 2 1 3 3 4 8 12 7 12 17 15 9 10 8
17 16 10 10 11 10 9 4 5 5 6 13 10 10 9 8 13 11 4 2 5 4 4 2 1 5 3 3 3 2 1 2 3 5 1 9 10 12 15 17 8 9 10 9
17 9 8 8 10 9 9 3 4 6 6 5 7 8 19 17 9 11 13 9 5 5 3 3 4 3 4 3 4 2 0 4 3 5 5 10 3 12 17 14 9 9 10 9
6 6 6 8 7 6 5 7 6 8 4 5 10 22 14 10 7 12 14 11 5 3 2 3 4 3 3 2 2 2 1 3 2 2 5 4 11 14 16 11 8 8 8 11
7 7 6 7 6 2 3 3 3 2 4 2 6 7 9 11 7 10 9 7 4 3 4 3 4 0 3 2 2 3 3 5 8 3 6 9 9 11 8 8 7 7 8 8
9 11 3 8 6 2 4 3 2 8 5 2 7 6 6 8 6 7 4 5 3 4 3 4 3 3 3 0 2 3 4 2 4 5 7 6 4 5 5 6 8 8 8 9
3 7 6 3 3 6 6 4 12 7 3 2 5 6 6 6 5 4 4 5 3 4 4 3 3 2 1 3 4 4 4 3 2 4 4 2 4 4 6 5 7 10 8 7
5 4 2 1 2 4 1 6 9 4 1 3 4 4 5 4 3 2 1 4 4 3 4 3 3 3 3 4 2 2 1 1 2 2 3 4 5 8 6 7 7 10 8 9
2 2 1 2 3 13 9 1 2 1 2 3 5 4 8 7 3 2 2 1 2 3 5 2 2 2 4 4 3 2 5 2 2 2 2 3 6 8 7 8 6 9 9 10
1 1 2 3 4 3 3 3 4 5 5 6 6 8 7 6 5 3 3 2 2 2 2 2 1 1 3 6 3 1 5 2 3 6 5 3 7 8 10 8 7 9 11 11
1 2 4 2 4 4 5 4 4 7 6 8 5 6 8 5 3 0 0 2 1 4 1 0 1 3 7 7 5 7 5 3 7 7 8 6 10 7 11 9 8 9 9 11
2 2 3 4 4 5 5 5 5 5 4 3 4 3 1 4 3 3 3 3 4 1 0 2 2 9 7 7 8 8 5 6 8 8 8 7 12 9 9 12 10 9 11 11
2 3 5 5 5 7 7 7 8 8 4 4 3 5 4 5 4 3 4 5 2 2 1 1 4 10 9 7 9 8 7 8 8 8 8 11 12 11 12 10 14 10 11 12
3 4 6 8 9 10 11 5 5 5 1 1 4 6 4 3 2 3 1 3 4 2 1 3 7 10 10 8 8 9 8 8 8 7 8 10 9 12 12 10 11 13 11 11
3 6 6 9 8 6 5 7 6 6 5 1 6 4 1 5 4 3 6 2 1 3 3 6 9 10 10 9 8 10 9 8 8 7 9 11 9 12 13 11 10 11 12 10
6 7 8 11 10 10 9 6 5 2 2 4 6 3 2 5 3 3 4 5 3 5 4 4 10 11 10 10 10 11 11 10 8 8 10 11 10 9 10 11 9 8 10 8
Wind_Direction
336 333 336 338 348 343 353 327 319 309 14 27 25 339 325 308 349 317 316 347 324 310 312 322 306 275 308 158 183 289 314 275 276 261 271 275 265 275 253 256 245 209 224 253
334 333 333 336 344 10 318 317 272 297 33 29 344 319 325 308 314 342 357 327 316 311 1 314 275 296 281 354 84 190 210 231 285 288 18 197 112 264 290 297 247 254 265 264
324 332 333 332 336 348 333 302 320 349 341 19 350 323 306 305 347 340 342 310 315 322 313 286 274 297 310 236 246 262 250 242 226 267 271 292 292 286 278 218 268 302 266 283
317 326 333 333 334 336 308 248 348 337 305 328 302 296 290 334 334 333 332 326 305 313 323 308 286 306 297 292 282 129 180 251 225 255 266 269 267 272 268 258 246 253 285 286
305 317 327 335 340 333 206 355 348 340 293 279 299 313 352 316 338 338 311 305 329 335 317 319 316 312 301 285 259 159 166 259 289 282 283 269 276 279 278 263 249 247 263 274
294 307 317 326 345 341 327 354 326 269 282 302 311 327 325 320 334 310 305 348 349 329 325 307 287 279 276 255 183 142 160 234 271 275 313 307 164 352 351 342 290 307 266 266
293 288 301 313 327 11 310 288 304 295 284 308 305 314 323 324 320 300 331 9 352 313 312 300 285 272 270 180 142 156 161 266 282 286 312 357 109 28 353 334 46 22 345 334
303 273 284 296 289 310 272 299 285 293 286 288 292 336 312 325 311 329 352 342 330 324 317 309 328 318 358 90 97 153 174 235 276 280 305 281 13 355 338 337 304 34 337 326
304 273 267 279 264 278 272 283 276 279 304 262 332 311 331 321 321 320 322 343 355 8 287 334 350 327 335 360 20 121 315 292 225 320 278 314 14 333 318 312 249 4 338 313
305 298 262 269 254 257 267 282 304 266 276 270 308 304 302 292 319 285 304 339 2 30 341 333 8 310 330 352 3 330 320 334 266 285 275 98 4 339 315 355 322 312 298 285
301 301 264 263 250 238 237 288 293 250 268 291 263 301 309 297 277 245 321 357 12 40 2 329 341 326 311 325 307 317 327 328 347 329 299 339 4 345 3 297 298 302 304 352
299 296 255 258 258 218 209 273 324 298 239 265 295 277 262 250 245 243 256 271 308 159 10 284 296 281 276 331 298 50 292 110 282 255 281 340 344 322 312 307 313 330 343 28
294 290 246 252 257 207 208 280 314 293 271 279 255 273 305 244 217 183 188 225 127 180 160 198 256 273 286 287 288 286 338 79 252 291 226 334 315 331 323 323 343 350 1 34
293 250 258 263 256 219 222 247 279 297 273 281 284 318 316 296 276 202 196 224 102 82 132 196 255 238 226 248 259 227 42 314 290 260 299 321 311 329 326 330 354 19 19 31
284 264 262 287 225 218 254 257 244 254 261 290 303 302 279 310 201 206 196 204 158 146 180 209 262 240 219 216 213 189 248 261 265 291 355 282 289 318 318 332 21 16 31 41
315 299 293 289 178 188 279 286 122 283 234 314 299 327 284 294 239 196 217 175 147 146 173 220 239 106 164 253 267 183 310 255 229 266 312 279 296 300 323 337 44 31 43 49
320 309 302 132 165 200 239 304 309 322 315 305 291 275 267 229 242 205 202 133 157 141 193 223 224 194 199 143 263 313 300 320 310 296 284 263 303 313 5 357 52 45 51 61
320 93 91 118 212 259 272 245 238 205 273 234 266 278 271 193 226 216 161 146 127 200 224 238 194 108 197 239 217 274 315 174 348 345 357 3 304 54 37 26 64 67 52 73
93 93 40 298 229 228 68 71 85 80 21 263 224 258 283 311 274 211 155 160 190 162 219 230 146 168 228 205 210 278 337 5 349 6 50 43 48 89 62 52 69 77 65 75
38 306 293 257 227 118 137 82 138 136 219 236 253 276 261 346 263 292 48 139 234 209 224 149 191 100 99 141 148 208 166 187 180 135 84 71 80 88 92 66 47 78 81 82
302 294 264 351 290 268 217 235 205 171 226 209 235 220 233 256 236 283 166 249 297 287 245 210 184 138 113 148 143 122 138 139 87 103 112 66 117 116 117 97 78 82 83 81
199 284 271 261 245 225 243 230 208 201 241 177 221 210 190 251 286 299 37 243 264 251 238 210 193 118 134 143 153 116 106 131 113 119 122 102 134 113 116 113 97 83 80 79
290 258 256 231 224 236 229 225 219 225 211 261 214 166 134 315 225 212 180 234 232 127 228 210 92 132 126 123 124 119 126 110 111 104 117 93 125 118 125 132 112 92 88 91
245 248 247 239 212 227 209 238 283 328 280 317 18 288 217 216 214 202 234 216 240 226 244 172 141 138 131 133 132 134 145 129 127 113 125 109 123 103 103 99 119 112 95 102
246 243 240 234 246 297 302 284 289 322 266 29 296 249 179 290 297 248 261 230 226 147 185 121 127 130 136 144 146 139 144 143 139 127 117 106 110 125 115 111 110 122 117 112
239 232 257 263 272 263 312 324 328 29 305 115 259 266 272 223 235 225 225 200 81 197 108 115 125 131 138 139 139 140 144 144 144 139 132 125 114 119 120 118 113 111 127 123
233 238 231 262 279 274 271 271 298 66 44 356 319 254 248 306 267 239 39 40 44 104 69 100 130 136 148 141 148 145 146 149 144 134 133 128 135 125 135 135 132 129 123 116